Year,Month,Day,Hour,Minute,Value (Times are PST for windspeed in km/hr)
2011,11,24,00,00,7.60
2011,11,24,00,01,5.20
2011,11,24,00,02,9.50
2011,11,24,00,03,6.80
2011,11,24,00,04,8.90
2011,11,24,00,05,4.90
2011,11,24,00,06,2.90
2011,11,24,00,07,5.30
2011,11,24,00,08,2.50
2011,11,24,00,09,5.10
2011,11,24,00,10,1.20
2011,11,24,00,11,1.60
2011,11,24,00,12,2.00
2011,11,24,00,13,2.40
2011,11,24,00,14,0.40
2011,11,24,00,15,0.00
2011,11,24,00,16,0.00
2011,11,24,00,17,0.00
2011,11,24,00,18,0.00
2011,11,24,00,19,0.10
2011,11,24,00,20,0.00
2011,11,24,00,21,0.00
2011,11,24,00,22,0.10
2011,11,24,00,23,0.10
2011,11,24,00,24,0.00
2011,11,24,00,25,0.10
2011,11,24,00,26,0.00
2011,11,24,00,27,0.00
2011,11,24,00,28,0.10
2011,11,24,00,29,0.00
2011,11,24,00,30,0.00
2011,11,24,00,31,0.00
2011,11,24,00,32,0.00
2011,11,24,00,33,0.00
2011,11,24,00,34,0.00
2011,11,24,00,35,0.00
2011,11,24,00,36,0.00
2011,11,24,00,37,0.00
2011,11,24,00,38,0.00
2011,11,24,00,39,0.00
2011,11,24,00,40,0.00
2011,11,24,00,41,1.50
2011,11,24,00,42,2.50
2011,11,24,00,43,3.20
2011,11,24,00,44,1.70
2011,11,24,00,45,3.30
2011,11,24,00,46,4.30
2011,11,24,00,47,3.30
2011,11,24,00,48,0.80
2011,11,24,00,49,0.20
2011,11,24,00,50,0.00
2011,11,24,00,51,0.00
2011,11,24,00,52,0.00
2011,11,24,00,53,0.00
2011,11,24,00,54,0.00
2011,11,24,00,55,0.00
2011,11,24,00,56,0.10
2011,11,24,00,57,0.40
2011,11,24,00,58,1.10
2011,11,24,00,59,0.00
2011,11,24,01,00,0.00
2011,11,24,01,01,0.00
2011,11,24,01,02,0.10
2011,11,24,01,03,0.10
2011,11,24,01,04,0.00
2011,11,24,01,05,0.00
2011,11,24,01,06,0.00
2011,11,24,01,07,0.00
2011,11,24,01,08,0.00
2011,11,24,01,09,0.00
2011,11,24,01,10,0.00
2011,11,24,01,11,0.00
2011,11,24,01,12,0.00
2011,11,24,01,13,0.00
2011,11,24,01,14,0.00
2011,11,24,01,15,0.00
2011,11,24,01,16,0.00
2011,11,24,01,17,0.00
2011,11,24,01,18,0.00
2011,11,24,01,19,0.00
2011,11,24,01,20,0.00
2011,11,24,01,21,0.00
2011,11,24,01,22,0.00
2011,11,24,01,23,0.00
2011,11,24,01,24,0.00
2011,11,24,01,25,0.00
2011,11,24,01,26,0.00
2011,11,24,01,27,0.00
2011,11,24,01,28,0.00
2011,11,24,01,29,0.00
2011,11,24,01,30,0.00
2011,11,24,01,31,0.00
2011,11,24,01,32,0.00
2011,11,24,01,33,0.00
2011,11,24,01,34,0.00
2011,11,24,01,35,0.00
2011,11,24,01,36,0.00
2011,11,24,01,37,0.00
2011,11,24,01,38,0.00
2011,11,24,01,39,0.00
2011,11,24,01,40,0.00
2011,11,24,01,41,0.00
2011,11,24,01,42,0.00
2011,11,24,01,43,0.00
2011,11,24,01,44,0.10
2011,11,24,01,45,0.10
2011,11,24,01,46,0.80
2011,11,24,01,47,0.10
2011,11,24,01,48,0.00
2011,11,24,01,49,0.00
2011,11,24,01,50,0.10
2011,11,24,01,51,0.60
2011,11,24,01,52,0.10
2011,11,24,01,53,0.10
2011,11,24,01,54,0.10
2011,11,24,01,55,0.00
2011,11,24,01,56,0.40
2011,11,24,01,57,0.20
2011,11,24,01,58,2.40
2011,11,24,01,59,3.50
2011,11,24,02,00,4.30
2011,11,24,02,01,3.00
2011,11,24,02,02,2.80
2011,11,24,02,03,2.40
2011,11,24,02,04,1.20
2011,11,24,02,05,0.10
2011,11,24,02,06,0.30
2011,11,24,02,07,0.00
2011,11,24,02,08,0.10
2011,11,24,02,09,0.20
2011,11,24,02,10,0.40
2011,11,24,02,11,2.20
2011,11,24,02,12,2.30
2011,11,24,02,13,0.20
2011,11,24,02,14,0.30
2011,11,24,02,15,0.00
2011,11,24,02,16,0.00
2011,11,24,02,17,0.00
2011,11,24,02,18,0.00
2011,11,24,02,19,0.00
2011,11,24,02,20,1.20
2011,11,24,02,21,4.10
2011,11,24,02,22,6.10
2011,11,24,02,23,4.90
2011,11,24,02,24,4.60
2011,11,24,02,25,3.50
2011,11,24,02,26,0.80
2011,11,24,02,27,0.00
2011,11,24,02,28,0.10
2011,11,24,02,29,0.10
2011,11,24,02,30,0.00
2011,11,24,02,31,0.10
2011,11,24,02,32,0.30
2011,11,24,02,33,0.80
2011,11,24,02,34,1.20
2011,11,24,02,35,1.70
2011,11,24,02,36,5.70
2011,11,24,02,37,6.10
2011,11,24,02,38,6.80
2011,11,24,02,39,9.30
2011,11,24,02,40,7.10
2011,11,24,02,41,7.00
2011,11,24,02,42,8.60
2011,11,24,02,43,5.00
2011,11,24,02,44,7.40
2011,11,24,02,45,7.80
2011,11,24,02,46,6.90
2011,11,24,02,47,6.30
2011,11,24,02,48,5.90
2011,11,24,02,49,5.70
2011,11,24,02,50,6.00
2011,11,24,02,51,6.80
2011,11,24,02,52,8.20
2011,11,24,02,53,4.10
2011,11,24,02,54,6.10
2011,11,24,02,55,7.60
2011,11,24,02,56,7.50
2011,11,24,02,57,6.90
2011,11,24,02,58,3.10
2011,11,24,02,59,5.10
2011,11,24,03,00,3.00
2011,11,24,03,01,3.40
2011,11,24,03,02,4.50
2011,11,24,03,03,4.40
2011,11,24,03,04,3.40
2011,11,24,03,05,4.50
2011,11,24,03,06,2.80
2011,11,24,03,07,2.30
2011,11,24,03,08,1.70
2011,11,24,03,09,2.00
2011,11,24,03,10,2.80
2011,11,24,03,11,3.20
2011,11,24,03,12,2.80
2011,11,24,03,13,2.60
2011,11,24,03,14,3.60
2011,11,24,03,15,5.00
2011,11,24,03,16,7.00
2011,11,24,03,17,7.00
2011,11,24,03,18,4.00
2011,11,24,03,19,3.30
2011,11,24,03,20,5.90
2011,11,24,03,21,8.00
2011,11,24,03,22,6.70
2011,11,24,03,23,5.90
2011,11,24,03,24,8.30
2011,11,24,03,25,5.70
2011,11,24,03,26,5.20
2011,11,24,03,27,4.10
2011,11,24,03,28,3.10
2011,11,24,03,29,8.50
2011,11,24,03,30,5.40
2011,11,24,03,31,5.60
2011,11,24,03,32,3.20
2011,11,24,03,33,0.20
2011,11,24,03,34,0.00
2011,11,24,03,35,0.00
2011,11,24,03,36,1.20
2011,11,24,03,37,3.10
2011,11,24,03,38,1.50
2011,11,24,03,39,0.00
2011,11,24,03,40,0.00
2011,11,24,03,41,0.00
2011,11,24,03,42,1.50
2011,11,24,03,43,3.10
2011,11,24,03,44,1.20
2011,11,24,03,45,3.10
2011,11,24,03,46,3.40
2011,11,24,03,47,6.00
2011,11,24,03,48,6.70
2011,11,24,03,49,5.90
2011,11,24,03,50,5.60
2011,11,24,03,51,6.00
2011,11,24,03,52,5.60
2011,11,24,03,53,5.60
2011,11,24,03,54,6.50
2011,11,24,03,55,4.90
2011,11,24,03,56,5.00
2011,11,24,03,57,5.00
2011,11,24,03,58,3.90
2011,11,24,03,59,5.00
2011,11,24,04,00,2.60
2011,11,24,04,01,2.50
2011,11,24,04,02,1.90
2011,11,24,04,03,0.80
2011,11,24,04,04,0.00
2011,11,24,04,05,0.30
2011,11,24,04,06,0.10
2011,11,24,04,07,0.00
2011,11,24,04,08,0.00
2011,11,24,04,09,0.00
2011,11,24,04,10,0.00
2011,11,24,04,11,0.00
2011,11,24,04,12,0.10
2011,11,24,04,13,0.00
2011,11,24,04,14,0.00
2011,11,24,04,15,0.00
2011,11,24,04,16,0.00
2011,11,24,04,17,0.50
2011,11,24,04,18,0.00
2011,11,24,04,19,0.00
2011,11,24,04,20,0.10
2011,11,24,04,21,1.50
2011,11,24,04,22,5.00
2011,11,24,04,23,6.60
2011,11,24,04,24,4.00
2011,11,24,04,25,2.80
2011,11,24,04,26,0.10
2011,11,24,04,27,0.00
2011,11,24,04,28,3.40
2011,11,24,04,29,3.90
2011,11,24,04,30,2.80
2011,11,24,04,31,3.10
2011,11,24,04,32,2.00
2011,11,24,04,33,3.10
2011,11,24,04,34,3.20
2011,11,24,04,35,3.20
2011,11,24,04,36,3.20
2011,11,24,04,37,3.20
2011,11,24,04,38,1.10
2011,11,24,04,39,0.00
2011,11,24,04,40,0.00
2011,11,24,04,41,0.00
2011,11,24,04,42,0.00
2011,11,24,04,43,0.00
2011,11,24,04,44,0.00
2011,11,24,04,45,0.00
2011,11,24,04,46,0.00
2011,11,24,04,47,0.00
2011,11,24,04,48,0.00
2011,11,24,04,49,0.00
2011,11,24,04,50,0.00
2011,11,24,04,51,2.10
2011,11,24,04,52,3.40
2011,11,24,04,53,3.60
2011,11,24,04,54,4.10
2011,11,24,04,55,1.10
2011,11,24,04,56,0.00
2011,11,24,04,57,1.60
2011,11,24,04,58,1.40
2011,11,24,04,59,0.50
2011,11,24,05,00,6.20
2011,11,24,05,01,8.10
2011,11,24,05,02,10.30
2011,11,24,05,03,8.90
2011,11,24,05,04,8.10
2011,11,24,05,05,7.70
2011,11,24,05,06,2.70
2011,11,24,05,07,1.40
2011,11,24,05,08,0.10
2011,11,24,05,09,0.00
2011,11,24,05,10,0.00
2011,11,24,05,11,0.00
2011,11,24,05,12,0.00
2011,11,24,05,13,0.00
2011,11,24,05,14,0.20
2011,11,24,05,15,0.00
2011,11,24,05,16,0.10
2011,11,24,05,17,0.10
2011,11,24,05,18,0.00
2011,11,24,05,19,0.20
2011,11,24,05,20,0.00
2011,11,24,05,21,0.00
2011,11,24,05,22,0.00
2011,11,24,05,23,0.10
2011,11,24,05,24,1.10
2011,11,24,05,25,0.80
2011,11,24,05,26,0.00
2011,11,24,05,27,1.50
2011,11,24,05,28,1.70
2011,11,24,05,29,0.00
2011,11,24,05,30,0.00
2011,11,24,05,31,0.10
2011,11,24,05,32,0.00
2011,11,24,05,33,0.00
2011,11,24,05,34,0.00
2011,11,24,05,35,0.00
2011,11,24,05,36,0.00
2011,11,24,05,37,0.50
2011,11,24,05,38,0.40
2011,11,24,05,39,0.00
2011,11,24,05,40,0.10
2011,11,24,05,41,0.00
2011,11,24,05,42,0.20
2011,11,24,05,43,2.40
2011,11,24,05,44,2.20
2011,11,24,05,45,0.00
2011,11,24,05,46,0.00
2011,11,24,05,47,0.80
2011,11,24,05,48,2.70
2011,11,24,05,49,2.80
2011,11,24,05,50,0.20
2011,11,24,05,51,0.50
2011,11,24,05,52,0.30
2011,11,24,05,53,0.00
2011,11,24,05,54,0.00
2011,11,24,05,55,0.10
2011,11,24,05,56,3.40
2011,11,24,05,57,4.00
2011,11,24,05,58,4.00
2011,11,24,05,59,1.70
2011,11,24,06,00,0.90
2011,11,24,06,01,0.00
2011,11,24,06,02,0.00
2011,11,24,06,03,0.00
2011,11,24,06,04,0.10
2011,11,24,06,05,0.40
2011,11,24,06,06,4.90
2011,11,24,06,07,2.00
2011,11,24,06,08,0.10
2011,11,24,06,09,0.10
2011,11,24,06,10,0.00
2011,11,24,06,11,0.00
2011,11,24,06,12,2.10
2011,11,24,06,13,2.90
2011,11,24,06,14,0.00
2011,11,24,06,15,0.00
2011,11,24,06,16,0.10
2011,11,24,06,17,0.00
2011,11,24,06,18,0.00
2011,11,24,06,19,0.00
2011,11,24,06,20,0.00
2011,11,24,06,21,0.00
2011,11,24,06,22,0.00
2011,11,24,06,23,0.00
2011,11,24,06,24,0.00
2011,11,24,06,25,0.00
2011,11,24,06,26,0.00
2011,11,24,06,27,0.00
2011,11,24,06,28,0.00
2011,11,24,06,29,0.00
2011,11,24,06,30,0.00
2011,11,24,06,31,0.00
2011,11,24,06,32,0.10
2011,11,24,06,33,2.40
2011,11,24,06,34,3.90
2011,11,24,06,35,3.40
2011,11,24,06,36,0.90
2011,11,24,06,37,1.90
2011,11,24,06,38,2.20
2011,11,24,06,39,0.00
2011,11,24,06,40,0.10
2011,11,24,06,41,0.00
2011,11,24,06,42,0.00
2011,11,24,06,43,0.00
2011,11,24,06,44,0.00
2011,11,24,06,45,0.90
2011,11,24,06,46,0.00
2011,11,24,06,47,0.00
2011,11,24,06,48,0.00
2011,11,24,06,49,0.00
2011,11,24,06,50,2.00
2011,11,24,06,51,3.20
2011,11,24,06,52,4.00
2011,11,24,06,53,3.60
2011,11,24,06,54,3.40
2011,11,24,06,55,0.50
2011,11,24,06,56,0.30
2011,11,24,06,57,0.30
2011,11,24,06,58,1.00
2011,11,24,06,59,3.00
2011,11,24,07,00,4.10
2011,11,24,07,01,2.50
2011,11,24,07,02,0.50
2011,11,24,07,03,0.00
2011,11,24,07,04,0.00
2011,11,24,07,05,0.00
2011,11,24,07,06,0.00
2011,11,24,07,07,0.10
2011,11,24,07,08,0.20
2011,11,24,07,09,0.00
2011,11,24,07,10,0.00
2011,11,24,07,11,1.60
2011,11,24,07,12,0.70
2011,11,24,07,13,0.00
2011,11,24,07,14,0.00
2011,11,24,07,15,0.00
2011,11,24,07,16,0.00
2011,11,24,07,17,0.00
2011,11,24,07,18,0.00
2011,11,24,07,19,0.00
2011,11,24,07,20,0.00
2011,11,24,07,21,0.00
2011,11,24,07,22,0.00
2011,11,24,07,23,0.00
2011,11,24,07,24,0.00
2011,11,24,07,25,0.00
2011,11,24,07,26,0.00
2011,11,24,07,27,0.00
2011,11,24,07,28,0.00
2011,11,24,07,29,0.10
2011,11,24,07,30,0.00
2011,11,24,07,31,0.20
2011,11,24,07,32,2.00
2011,11,24,07,33,0.50
2011,11,24,07,34,0.00
2011,11,24,07,35,0.00
2011,11,24,07,36,0.30
2011,11,24,07,37,0.00
2011,11,24,07,38,0.10
2011,11,24,07,39,0.30
2011,11,24,07,40,2.70
2011,11,24,07,41,2.70
2011,11,24,07,42,0.20
2011,11,24,07,43,0.00
2011,11,24,07,44,0.00
2011,11,24,07,45,0.00
2011,11,24,07,46,0.00
2011,11,24,07,47,0.00
2011,11,24,07,48,1.20
2011,11,24,07,49,0.30
2011,11,24,07,50,0.00
2011,11,24,07,51,0.10
2011,11,24,07,52,0.00
2011,11,24,07,53,0.70
2011,11,24,07,54,2.10
2011,11,24,07,55,2.60
2011,11,24,07,56,1.10
2011,11,24,07,57,0.20
2011,11,24,07,58,0.00
2011,11,24,07,59,0.00
2011,11,24,08,00,0.60
2011,11,24,08,01,0.00
2011,11,24,08,02,0.30
2011,11,24,08,03,0.10
2011,11,24,08,04,0.60
2011,11,24,08,05,3.80
2011,11,24,08,06,1.90
2011,11,24,08,07,0.10
2011,11,24,08,08,0.20
2011,11,24,08,09,0.00
2011,11,24,08,10,0.00
2011,11,24,08,11,0.00
2011,11,24,08,12,0.20
2011,11,24,08,13,1.70
2011,11,24,08,14,2.30
2011,11,24,08,15,6.10
2011,11,24,08,16,6.10
2011,11,24,08,17,4.90
2011,11,24,08,18,5.40
2011,11,24,08,19,7.10
2011,11,24,08,20,7.80
2011,11,24,08,21,5.90
2011,11,24,08,22,5.90
2011,11,24,08,23,6.80
2011,11,24,08,24,6.90
2011,11,24,08,25,6.70
2011,11,24,08,26,5.10
2011,11,24,08,27,5.30
2011,11,24,08,28,6.90
2011,11,24,08,29,6.80
2011,11,24,08,30,5.70
2011,11,24,08,31,5.20
2011,11,24,08,32,3.20
2011,11,24,08,33,5.00
2011,11,24,08,34,6.40
2011,11,24,08,35,4.20
2011,11,24,08,36,5.20
2011,11,24,08,37,4.70
2011,11,24,08,38,3.10
2011,11,24,08,39,0.20
2011,11,24,08,40,0.60
2011,11,24,08,41,0.00
2011,11,24,08,42,0.50
2011,11,24,08,43,0.00
2011,11,24,08,44,0.00
2011,11,24,08,45,0.00
2011,11,24,08,46,0.00
2011,11,24,08,47,0.00
2011,11,24,08,48,0.00
2011,11,24,08,49,0.00
2011,11,24,08,50,0.00
2011,11,24,08,51,0.00
2011,11,24,08,52,0.00
2011,11,24,08,53,0.00
2011,11,24,08,54,0.00
2011,11,24,08,55,0.00
2011,11,24,08,56,0.00
2011,11,24,08,57,0.10
2011,11,24,08,58,0.90
2011,11,24,08,59,3.20
2011,11,24,09,00,2.40
2011,11,24,09,01,0.90
2011,11,24,09,02,0.10
2011,11,24,09,03,0.00
2011,11,24,09,04,0.10
2011,11,24,09,05,0.00
2011,11,24,09,06,0.00
2011,11,24,09,07,0.00
2011,11,24,09,08,0.00
2011,11,24,09,09,0.10
2011,11,24,09,10,0.10
2011,11,24,09,11,0.80
2011,11,24,09,12,0.00
2011,11,24,09,13,0.00
2011,11,24,09,14,0.00
2011,11,24,09,15,0.00
2011,11,24,09,16,0.00
2011,11,24,09,17,0.00
2011,11,24,09,18,0.00
2011,11,24,09,19,0.00
2011,11,24,09,20,0.00
2011,11,24,09,21,0.10
2011,11,24,09,22,0.00
2011,11,24,09,23,0.00
2011,11,24,09,24,0.00
2011,11,24,09,25,0.00
2011,11,24,09,26,0.00
2011,11,24,09,27,0.00
2011,11,24,09,28,0.00
2011,11,24,09,29,0.00
2011,11,24,09,30,0.00
2011,11,24,09,31,0.00
2011,11,24,09,32,0.10
2011,11,24,09,33,0.00
2011,11,24,09,34,0.00
2011,11,24,09,35,0.00
2011,11,24,09,36,0.00
2011,11,24,09,37,0.00
2011,11,24,09,38,0.00
2011,11,24,09,39,0.00
2011,11,24,09,40,0.00
2011,11,24,09,41,0.10
2011,11,24,09,42,0.50
2011,11,24,09,43,0.00
2011,11,24,09,44,0.10
2011,11,24,09,45,0.00
2011,11,24,09,46,0.00
2011,11,24,09,47,0.00
2011,11,24,09,48,0.00
2011,11,24,09,49,0.00
2011,11,24,09,50,0.00
2011,11,24,09,51,0.00
2011,11,24,09,52,0.00
2011,11,24,09,53,0.00
2011,11,24,09,54,0.00
2011,11,24,09,55,0.10
2011,11,24,09,56,0.20
2011,11,24,09,57,0.00
2011,11,24,09,58,0.00
2011,11,24,09,59,0.00
2011,11,24,10,00,0.40
2011,11,24,10,01,1.50
2011,11,24,10,02,1.20
2011,11,24,10,03,0.00
2011,11,24,10,04,0.00
2011,11,24,10,05,0.00
2011,11,24,10,06,0.00
2011,11,24,10,07,0.00
2011,11,24,10,08,0.00
2011,11,24,10,09,0.00
2011,11,24,10,10,0.00
2011,11,24,10,11,0.00
2011,11,24,10,12,0.00
2011,11,24,10,13,0.00
2011,11,24,10,14,0.00
2011,11,24,10,15,0.00
2011,11,24,10,16,0.00
2011,11,24,10,17,0.00
2011,11,24,10,18,0.00
2011,11,24,10,19,0.00
2011,11,24,10,20,0.00
2011,11,24,10,21,0.00
2011,11,24,10,22,0.00
2011,11,24,10,23,0.00
2011,11,24,10,24,0.00
2011,11,24,10,25,0.00
2011,11,24,10,26,0.00
2011,11,24,10,27,0.00
2011,11,24,10,28,0.00
2011,11,24,10,29,0.00
2011,11,24,10,30,0.00
2011,11,24,10,31,0.00
2011,11,24,10,32,0.00
2011,11,24,10,33,0.00
2011,11,24,10,34,0.00
2011,11,24,10,35,0.00
2011,11,24,10,36,0.00
2011,11,24,10,37,0.10
2011,11,24,10,38,0.00
2011,11,24,10,39,0.00
2011,11,24,10,40,0.10
2011,11,24,10,41,0.00
2011,11,24,10,42,0.00
2011,11,24,10,43,0.10
2011,11,24,10,44,0.00
2011,11,24,10,45,0.10
2011,11,24,10,46,0.00
2011,11,24,10,47,0.00
2011,11,24,10,48,0.00
2011,11,24,10,49,0.00
2011,11,24,10,50,0.00
2011,11,24,10,51,0.00
2011,11,24,10,52,0.00
2011,11,24,10,53,0.00
2011,11,24,10,54,0.30
2011,11,24,10,55,0.90
2011,11,24,10,56,0.00
2011,11,24,10,57,0.00
2011,11,24,10,58,0.10
2011,11,24,10,59,0.00
2011,11,24,11,00,0.20
2011,11,24,11,01,0.20
2011,11,24,11,02,0.30
2011,11,24,11,03,0.00
2011,11,24,11,04,0.10
2011,11,24,11,05,0.00
2011,11,24,11,06,0.10
2011,11,24,11,07,0.00
2011,11,24,11,08,0.20
2011,11,24,11,09,1.40
2011,11,24,11,10,2.40
2011,11,24,11,11,1.50
2011,11,24,11,12,0.00
2011,11,24,11,13,0.10
2011,11,24,11,14,0.10
2011,11,24,11,15,0.00
2011,11,24,11,16,0.00
2011,11,24,11,17,0.00
2011,11,24,11,18,0.00
2011,11,24,11,19,0.20
2011,11,24,11,20,0.10
2011,11,24,11,21,0.00
2011,11,24,11,22,0.10
2011,11,24,11,23,2.60
2011,11,24,11,24,3.00
2011,11,24,11,25,2.20
2011,11,24,11,26,2.80
2011,11,24,11,27,4.20
2011,11,24,11,28,4.10
2011,11,24,11,29,5.90
2011,11,24,11,30,3.40
2011,11,24,11,31,6.60
2011,11,24,11,32,11.40
2011,11,24,11,33,6.80
2011,11,24,11,34,7.00
2011,11,24,11,35,8.50
2011,11,24,11,36,4.70
2011,11,24,11,37,2.50
2011,11,24,11,38,3.90
2011,11,24,11,39,6.40
2011,11,24,11,40,6.80
2011,11,24,11,41,1.70
2011,11,24,11,42,0.50
2011,11,24,11,43,0.10
2011,11,24,11,44,0.00
2011,11,24,11,45,0.20
2011,11,24,11,46,3.10
2011,11,24,11,47,4.90
2011,11,24,11,48,2.40
2011,11,24,11,49,3.70
2011,11,24,11,50,7.20
2011,11,24,11,51,3.60
2011,11,24,11,52,1.20
2011,11,24,11,53,1.90
2011,11,24,11,54,2.50
2011,11,24,11,55,2.80
2011,11,24,11,56,4.10
2011,11,24,11,57,1.80
2011,11,24,11,58,0.60
2011,11,24,11,59,0.10
2011,11,24,12,00,2.10
2011,11,24,12,01,3.00
2011,11,24,12,02,4.80
2011,11,24,12,03,7.60
2011,11,24,12,04,7.50
2011,11,24,12,05,6.10
2011,11,24,12,06,4.80
2011,11,24,12,07,6.30
2011,11,24,12,08,4.80
2011,11,24,12,09,4.10
2011,11,24,12,10,4.00
2011,11,24,12,11,5.60
2011,11,24,12,12,0.80
2011,11,24,12,13,1.00
2011,11,24,12,14,4.60
2011,11,24,12,15,7.20
2011,11,24,12,16,5.30
2011,11,24,12,17,7.90
2011,11,24,12,18,7.60
2011,11,24,12,19,4.00
2011,11,24,12,20,4.00
2011,11,24,12,21,4.90
2011,11,24,12,22,4.70
2011,11,24,12,23,2.40
2011,11,24,12,24,2.30
2011,11,24,12,25,3.10
2011,11,24,12,26,4.20
2011,11,24,12,27,2.10
2011,11,24,12,28,1.60
2011,11,24,12,29,2.00
2011,11,24,12,30,4.20
2011,11,24,12,31,3.80
2011,11,24,12,32,2.00
2011,11,24,12,33,0.00
2011,11,24,12,34,0.10
2011,11,24,12,35,1.00
2011,11,24,12,36,1.80
2011,11,24,12,37,4.60
2011,11,24,12,38,0.20
2011,11,24,12,39,0.60
2011,11,24,12,40,5.60
2011,11,24,12,41,9.20
2011,11,24,12,42,8.50
2011,11,24,12,43,4.90
2011,11,24,12,44,4.20
2011,11,24,12,45,4.70
2011,11,24,12,46,7.70
2011,11,24,12,47,3.50
2011,11,24,12,48,4.40
2011,11,24,12,49,8.30
2011,11,24,12,50,3.00
2011,11,24,12,51,5.40
2011,11,24,12,52,5.80
2011,11,24,12,53,10.10
2011,11,24,12,54,10.50
2011,11,24,12,55,6.90
2011,11,24,12,56,5.30
2011,11,24,12,57,2.20
2011,11,24,12,58,1.20
2011,11,24,12,59,1.20
2011,11,24,13,00,7.20
2011,11,24,13,01,12.40
2011,11,24,13,02,7.20
2011,11,24,13,03,6.40
2011,11,24,13,04,6.60
2011,11,24,13,05,2.50
2011,11,24,13,06,3.20
2011,11,24,13,07,1.90
2011,11,24,13,08,0.80
2011,11,24,13,09,7.20
2011,11,24,13,10,4.90
2011,11,24,13,11,3.20
2011,11,24,13,12,1.80
2011,11,24,13,13,2.80
2011,11,24,13,14,4.80
2011,11,24,13,15,4.80
2011,11,24,13,16,4.60
2011,11,24,13,17,1.50
2011,11,24,13,18,2.70
2011,11,24,13,19,2.30
2011,11,24,13,20,1.60
2011,11,24,13,21,0.30
2011,11,24,13,22,3.70
2011,11,24,13,23,3.00
2011,11,24,13,24,4.00
2011,11,24,13,25,5.10
2011,11,24,13,26,7.10
2011,11,24,13,27,5.20
2011,11,24,13,28,4.50
2011,11,24,13,29,4.00
2011,11,24,13,30,8.90
2011,11,24,13,31,8.10
2011,11,24,13,32,3.40
2011,11,24,13,33,5.30
2011,11,24,13,34,4.70
2011,11,24,13,35,3.80
2011,11,24,13,36,6.70
2011,11,24,13,37,7.20
2011,11,24,13,38,6.90
2011,11,24,13,39,5.10
2011,11,24,13,40,3.60
2011,11,24,13,41,4.00
2011,11,24,13,42,2.10
2011,11,24,13,43,0.50
2011,11,24,13,44,0.40
2011,11,24,13,45,1.00
2011,11,24,13,46,5.30
2011,11,24,13,47,4.80
2011,11,24,13,48,5.60
2011,11,24,13,49,5.90
2011,11,24,13,50,3.10
2011,11,24,13,51,6.70
2011,11,24,13,52,3.10
2011,11,24,13,53,3.70
2011,11,24,13,54,1.40
2011,11,24,13,55,2.50
2011,11,24,13,56,4.20
2011,11,24,13,57,5.50
2011,11,24,13,58,3.40
2011,11,24,13,59,6.00
2011,11,24,14,00,1.50
2011,11,24,14,01,5.90
2011,11,24,14,02,2.40
2011,11,24,14,03,4.00
2011,11,24,14,04,3.10
2011,11,24,14,05,6.10
2011,11,24,14,06,3.70
2011,11,24,14,07,5.30
2011,11,24,14,08,5.10
2011,11,24,14,09,1.70
2011,11,24,14,10,4.00
2011,11,24,14,11,7.00
2011,11,24,14,12,5.60
2011,11,24,14,13,3.80
2011,11,24,14,14,4.60
2011,11,24,14,15,8.90
2011,11,24,14,16,4.90
2011,11,24,14,17,3.10
2011,11,24,14,18,7.30
2011,11,24,14,19,13.40
2011,11,24,14,20,6.90
2011,11,24,14,21,3.40
2011,11,24,14,22,0.70
2011,11,24,14,23,0.00
2011,11,24,14,24,4.70
2011,11,24,14,25,6.70
2011,11,24,14,26,12.90
2011,11,24,14,27,7.40
2011,11,24,14,28,5.40
2011,11,24,14,29,10.70
2011,11,24,14,30,11.00
2011,11,24,14,31,9.70
2011,11,24,14,32,1.40
2011,11,24,14,33,1.10
2011,11,24,14,34,0.80
2011,11,24,14,35,1.10
2011,11,24,14,36,4.90
2011,11,24,14,37,8.50
2011,11,24,14,38,7.80
2011,11,24,14,39,6.90
2011,11,24,14,40,8.20
2011,11,24,14,41,2.80
2011,11,24,14,42,1.60
2011,11,24,14,43,3.90
2011,11,24,14,44,7.40
2011,11,24,14,45,8.70
2011,11,24,14,46,7.00
2011,11,24,14,47,7.50
2011,11,24,14,48,5.00
2011,11,24,14,49,4.30
2011,11,24,14,50,12.00
2011,11,24,14,51,7.90
2011,11,24,14,52,11.70
2011,11,24,14,53,10.20
2011,11,24,14,54,8.20
2011,11,24,14,55,9.80
2011,11,24,14,56,8.00
2011,11,24,14,57,10.00
2011,11,24,14,58,13.50
2011,11,24,14,59,9.10
2011,11,24,15,00,10.20
2011,11,24,15,01,18.70
2011,11,24,15,02,13.50
2011,11,24,15,03,12.60
2011,11,24,15,04,13.60
2011,11,24,15,05,10.00
2011,11,24,15,06,9.40
2011,11,24,15,07,15.20
2011,11,24,15,08,18.70
2011,11,24,15,09,20.40
2011,11,24,15,10,21.00
2011,11,24,15,11,16.50
2011,11,24,15,12,10.80
2011,11,24,15,13,10.30
2011,11,24,15,14,8.10
2011,11,24,15,15,4.40
2011,11,24,15,16,1.40
2011,11,24,15,17,2.80
2011,11,24,15,18,1.40
2011,11,24,15,19,1.60
2011,11,24,15,20,6.70
2011,11,24,15,21,6.70
2011,11,24,15,22,8.70
2011,11,24,15,23,12.70
2011,11,24,15,24,26.00
2011,11,24,15,25,28.90
2011,11,24,15,26,19.20
2011,11,24,15,27,27.60
2011,11,24,15,28,23.80
2011,11,24,15,29,29.20
2011,11,24,15,30,23.20
2011,11,24,15,31,27.00
2011,11,24,15,32,18.50
2011,11,24,15,33,23.10
2011,11,24,15,34,22.60
2011,11,24,15,35,11.40
2011,11,24,15,36,13.20
2011,11,24,15,37,24.70
2011,11,24,15,38,19.10
2011,11,24,15,39,12.00
2011,11,24,15,40,14.10
2011,11,24,15,41,19.70
2011,11,24,15,42,24.70
2011,11,24,15,43,18.80
2011,11,24,15,44,21.30
2011,11,24,15,45,15.30
2011,11,24,15,46,20.20
2011,11,24,15,47,20.40
2011,11,24,15,48,27.20
2011,11,24,15,49,31.30
2011,11,24,15,50,27.70
2011,11,24,15,51,19.00
2011,11,24,15,52,24.60
2011,11,24,15,53,19.40
2011,11,24,15,54,14.60
2011,11,24,15,55,16.90
2011,11,24,15,56,16.00
2011,11,24,15,57,18.40
2011,11,24,15,58,25.70
2011,11,24,15,59,22.50
2011,11,24,16,00,22.20
2011,11,24,16,01,16.60
2011,11,24,16,02,13.90
2011,11,24,16,03,20.60
2011,11,24,16,04,11.40
2011,11,24,16,05,17.60
2011,11,24,16,06,14.30
2011,11,24,16,07,20.40
2011,11,24,16,08,20.30
2011,11,24,16,09,27.90
2011,11,24,16,10,25.60
2011,11,24,16,11,22.10
2011,11,24,16,12,18.00
2011,11,24,16,13,17.40
2011,11,24,16,14,22.10
2011,11,24,16,15,15.70
2011,11,24,16,16,22.90
2011,11,24,16,17,20.10
2011,11,24,16,18,18.00
2011,11,24,16,19,22.20
2011,11,24,16,20,20.70
2011,11,24,16,21,15.10
2011,11,24,16,22,11.70
2011,11,24,16,23,21.80
2011,11,24,16,24,19.50
2011,11,24,16,25,14.60
2011,11,24,16,26,21.30
2011,11,24,16,27,22.40
2011,11,24,16,28,19.80
2011,11,24,16,29,20.80
2011,11,24,16,30,23.20
2011,11,24,16,31,17.60
2011,11,24,16,32,23.40
2011,11,24,16,33,22.60
2011,11,24,16,34,20.80
2011,11,24,16,35,13.20
2011,11,24,16,36,18.80
2011,11,24,16,37,22.00
2011,11,24,16,38,19.20
2011,11,24,16,39,24.10
2011,11,24,16,40,22.10
2011,11,24,16,41,16.80
2011,11,24,16,42,19.30
2011,11,24,16,43,27.10
2011,11,24,16,44,16.70
2011,11,24,16,45,18.10
2011,11,24,16,46,13.60
2011,11,24,16,47,20.80
2011,11,24,16,48,17.20
2011,11,24,16,49,21.40
2011,11,24,16,50,17.20
2011,11,24,16,51,10.70
2011,11,24,16,52,11.00
2011,11,24,16,53,16.60
2011,11,24,16,54,23.00
2011,11,24,16,55,17.90
2011,11,24,16,56,23.80
2011,11,24,16,57,15.60
2011,11,24,16,58,12.80
2011,11,24,16,59,11.70
2011,11,24,17,00,19.80
2011,11,24,17,01,11.70
2011,11,24,17,02,20.20
2011,11,24,17,03,19.10
2011,11,24,17,04,13.90
2011,11,24,17,05,11.60
2011,11,24,17,06,17.00
2011,11,24,17,07,13.00
2011,11,24,17,08,11.30
2011,11,24,17,09,13.70
2011,11,24,17,10,15.70
2011,11,24,17,11,14.20
2011,11,24,17,12,17.90
2011,11,24,17,13,23.20
2011,11,24,17,14,20.50
2011,11,24,17,15,18.20
2011,11,24,17,16,19.80
2011,11,24,17,17,17.20
2011,11,24,17,18,20.00
2011,11,24,17,19,17.30
2011,11,24,17,20,13.90
2011,11,24,17,21,14.00
2011,11,24,17,22,17.40
2011,11,24,17,23,17.90
2011,11,24,17,24,20.30
2011,11,24,17,25,17.80
2011,11,24,17,26,23.00
2011,11,24,17,27,19.40
2011,11,24,17,28,16.00
2011,11,24,17,29,21.60
2011,11,24,17,30,17.90
2011,11,24,17,31,13.30
2011,11,24,17,32,16.70
2011,11,24,17,33,12.30
2011,11,24,17,34,6.70
2011,11,24,17,35,8.70
2011,11,24,17,36,10.00
2011,11,24,17,37,8.30
2011,11,24,17,38,11.30
2011,11,24,17,39,8.30
2011,11,24,17,40,11.70
2011,11,24,17,41,31.40
2011,11,24,17,42,23.50
2011,11,24,17,43,18.20
2011,11,24,17,44,20.30
2011,11,24,17,45,14.60
2011,11,24,17,46,13.10
2011,11,24,17,47,15.20
2011,11,24,17,48,12.50
2011,11,24,17,49,14.20
2011,11,24,17,50,11.90
2011,11,24,17,51,10.60
2011,11,24,17,52,9.00
2011,11,24,17,53,9.40
2011,11,24,17,54,10.00
2011,11,24,17,55,10.00
2011,11,24,17,56,16.20
2011,11,24,17,57,13.60
2011,11,24,17,58,8.90